Wind_Speed
21 21 21 20 20 19 18 17 16 15 13 13 12 12 12 11 11 11 11 10 9 7 7 7 8 10 11 11 12 13 14 15 16 16 17 18 18 19 19 20 21 22
23 23 22 22 21 20 19 18 16 15 15 14 14 13 12 12 12 12 12 11 11 10 9 10 10 11 12 13 13 14 15 16 17 17 18 19 19 20 21 21 22 23
24 24 24 23 22 21 20 19 17 17 16 16 15 14 14 14 14 14 13 13 13 13 12 12 12 12 13 15 15 15 16 17 18 18 19 20 21 22 23 23 24 25
27 26 25 24 23 23 22 20 19 19 18 17 16 15 15 16 16 16 15 15 15 15 15 14 14 14 14 15 16 17 17 18 19 20 20 21 22 23 24 25 25 26
29 28 27 26 25 25 24 22 21 20 19 18 17 17 17 18 18 18 17 17 17 17 17 17 17 16 16 16 17 17 18 19 21 21 22 22 23 24 25 26 27 27
30 30 29 28 28 27 25 24 23 21 20 19 19 19 19 19 20 20 19 19 19 19 19 20 20 19 18 18 18 18 18 19 21 22 23 24 25 26 27 28 29 29
32 31 30 30 30 29 27 26 24 23 22 21 21 22 22 22 22 22 21 21 21 21 21 22 22 22 21 20 20 19 19 19 20 22 24 25 26 28 29 29 30 31
33 32 32 33 32 31 29 28 26 25 24 23 23 24 24 24 24 24 23 23 23 23 23 23 23 23 23 23 22 21 21 21 21 22 24 26 28 29 30 31 31 32
35 35 35 35 34 32 31 30 29 28 27 26 26 27 27 26 25 25 24 24 24 25 25 24 24 24 24 24 24 24 23 23 23 23 24 26 28 30 31 31 32 32
38 37 38 37 36 34 32 32 31 30 29 28 29 29 28 28 27 26 26 26 26 26 26 26 25 25 25 25 25 25 25 25 25 26 26 27 29 31 31 32 32 34
40 40 40 39 37 35 34 34 33 32 32 31 31 30 30 29 28 27 27 27 27 26 26 26 26 26 26 26 26 26 26 26 27 27 28 29 30 31 32 33 34 36
42 42 41 40 39 38 37 37 36 35 34 33 32 31 30 29 28 28 27 27 27 27 26 26 26 26 26 26 27 27 27 27 28 28 29 30 31 32 33 35 36 38
42 41 42 42 40 40 39 39 38 37 36 35 34 32 31 29 28 27 27 27 26 26 26 25 25 25 26 26 26 27 28 29 29 30 30 31 32 33 35 36 38 39
41 40 40 41 42 42 42 41 40 38 37 36 35 33 30 28 27 27 26 26 26 26 25 25 24 25 25 25 26 27 28 29 31 32 32 33 34 35 37 38 40 41
42 41 40 40 42 43 42 41 40 38 37 36 34 32 29 27 26 26 26 26 26 25 25 24 24 24 25 25 26 27 29 30 32 33 34 35 35 36 38 41 43 45
44 43 42 41 41 42 41 40 39 38 37 35 33 30 28 27 26 26 25 26 26 26 26 26 26 26 26 26 28 29 30 31 33 34 36 37 37 39 41 44 46 48
45 45 44 42 41 40 40 39 38 37 36 34 32 30 28 27 27 26 26 26 27 27 28 28 28 27 28 28 29 30 31 32 34 35 37 38 40 42 45 47 48 49
45 45 45 43 41 40 39 38 38 37 36 34 32 30 29 29 28 26 26 27 28 29 29 29 29 29 29 30 31 32 33 34 35 37 39 41 43 45 47 48 48 47
44 45 45 44 42 41 39 38 38 38 37 34 32 30 30 30 29 28 28 29 30 31 31 30 30 30 30 31 32 33 35 36 37 39 41 43 45 47 47 47 45 42
44 44 45 44 43 42 40 40 39 39 37 35 33 32 32 32 31 31 31 31 31 32 32 31 31 30 31 32 33 35 36 38 39 42 44 45 46 46 45 43 39 37
43 44 44 44 44 43 42 41 40 39 38 36 35 34 34 33 33 34 34 33 34 34 34 32 31 32 32 33 34 36 38 40 42 44 46 46 45 43 40 37 35 34
41 43 44 44 44 44 43 42 41 40 39 38 37 36 36 36 36 36 36 36 36 36 35 33 33 33 34 34 35 37 40 43 45 46 46 44 41 38 35 34 32 31
38 40 42 43 44 45 44 43 42 41 40 40 39 39 39 38 37 37 37 38 38 38 36 34 35 35 35 36 37 39 41 44 45 45 44 40 37 34 33 32 30 30
35 37 39 42 44 45 44 44 43 42 42 42 42 41 41 40 39 39 39 40 40 39 37 36 37 37 37 38 39 41 43 44 43 41 38 35 34 33 32 32 31 31
33 35 37 40 42 44 44 44 44 44 43 43 44 44 43 42 41 41 41 41 40 39 39 38 38 38 39 40 41 42 43 41 38 35 32 30 30 31 31 32 32 32
35 35 36 38 40 42 44 45 45 45 45 45 45 44 43 42 42 42 42 41 40 40 40 40 40 40 41 42 43 42 40 37 34 31 29 28 29 30 32 32 32 32
Wind_Direction
215 214 212 210 209 209 207 205 204 202 200 200 204 210 215 216 216 220 228 236 242 250 264 279 294 304 313 320 325 330 335 340 342 344 345 345 343 341 339 338 338 337
214 214 213 213 212 212 211 210 208 205 205 206 210 216 224 229 231 232 236 245 252 257 264 275 287 297 304 309 314 319 324 329 333 336 338 340 339 338 337 337 335 334
213 214 214 215 215 215 216 215 212 211 213 216 219 223 231 238 243 245 247 253 259 265 270 275 283 293 299 304 308 311 317 322 326 329 332 334 335 335 335 335 334 332
213 214 215 215 216 217 218 219 218 219 222 225 228 232 238 244 249 253 257 261 266 273 277 280 284 290 296 300 303 305 310 317 321 323 327 330 331 330 331 331 331 330
215 215 215 216 216 218 220 222 224 226 229 231 236 241 245 250 256 260 264 268 272 277 281 284 286 289 293 296 299 300 305 311 316 320 323 325 326 326 327 327 328 328
217 217 218 218 219 220 222 225 228 231 234 237 241 246 251 256 261 265 268 271 274 277 281 284 287 289 291 293 295 296 300 307 313 316 319 321 322 323 324 325 326 326
219 218 220 222 223 223 225 227 230 233 237 241 245 249 253 257 260 264 268 271 273 275 278 282 285 288 290 293 294 294 296 302 308 312 314 316 318 320 322 323 324 324
222 220 221 224 226 227 227 229 232 235 239 243 247 251 254 256 259 262 266 269 272 274 276 280 284 288 290 292 293 295 296 298 302 305 309 312 315 318 321 322 322 323
223 221 223 226 229 230 231 233 235 238 241 245 248 252 255 258 260 263 266 270 273 276 278 280 283 286 289 292 293 294 296 297 299 302 307 311 314 317 319 320 320 320
225 224 225 228 231 233 235 237 239 242 244 247 251 254 257 259 263 267 269 272 274 277 279 281 283 285 288 290 292 293 294 297 301 305 308 311 313 315 316 317 317 318
228 227 228 230 232 235 237 240 242 245 247 249 253 255 258 261 264 268 272 274 276 278 280 282 283 285 287 288 290 292 294 298 303 306 308 310 312 313 314 314 316 317
230 230 231 233 234 236 238 241 244 246 249 251 253 254 257 261 265 269 271 274 277 279 280 282 284 286 287 289 291 294 297 300 302 304 306 308 309 311 312 314 315 316
231 232 233 235 237 238 239 242 244 247 249 251 252 254 257 261 265 268 271 273 276 280 283 285 287 289 290 291 293 296 298 300 301 303 304 306 308 310 312 313 314 315
231 233 234 236 238 239 241 242 245 247 249 250 252 254 256 260 264 268 272 276 279 282 285 288 290 290 291 293 295 296 298 299 301 302 303 305 308 310 312 312 313 314
231 232 234 235 237 239 241 242 244 246 247 249 250 253 255 259 264 269 274 277 281 284 287 288 290 291 292 294 295 296 297 298 300 301 303 306 309 310 311 311 313 314
229 231 232 234 236 238 240 241 243 244 246 247 249 251 255 259 264 268 274 279 283 286 288 289 289 290 292 293 294 295 296 297 299 302 305 307 308 310 311 312 313 314
227 229 231 232 235 237 238 240 243 244 245 246 248 252 256 260 264 269 275 280 283 286 287 288 289 290 291 292 293 294 295 297 300 303 305 307 309 310 311 312 312 313
226 227 229 230 233 235 238 240 243 244 245 247 250 254 258 262 266 271 276 279 282 285 286 288 289 290 290 291 293 294 297 299 301 303 305 307 309 310 311 311 311 311
229 228 228 229 231 234 237 240 242 244 247 249 253 256 260 264 269 273 276 278 281 284 286 287 288 289 290 291 293 296 298 300 302 304 306 307 308 308 309 309 309 310
233 231 229 229 230 233 236 239 242 245 248 251 254 257 261 265 270 273 275 277 280 284 286 287 287 288 289 291 294 296 298 300 302 304 305 305 306 307 307 307 308 310
236 234 232 231 231 233 236 239 242 245 249 252 255 258 261 265 269 272 275 278 281 284 285 285 286 287 289 291 294 296 298 300 302 303 303 303 304 305 304 305 307 309
238 237 235 233 233 234 236 239 243 246 249 253 255 258 261 264 267 271 275 278 280 282 284 284 284 286 288 291 293 295 298 300 300 300 301 302 302 302 302 303 305 307
242 240 238 237 235 236 237 240 243 246 250 253 255 258 261 264 267 270 273 276 279 281 282 282 284 286 287 289 291 294 296 298 298 299 300 301 301 301 301 302 303 304
243 242 241 240 239 239 240 241 244 246 250 252 255 258 260 263 266 269 271 274 277 278 279 281 283 284 285 288 291 293 295 296 296 296 297 299 301 301 302 303 305 307
241 242 241 241 241 241 241 243 245 247 249 252 255 257 260 263 265 267 269 272 274 275 277 279 280 282 284 287 291 292 293 292 291 289 290 292 293 294 296 299 303 307
240 240 240 240 240 241 243 244 246 248 249 252 255 257 260 261 263 265 268 270 271 273 275 277 279 281 285 288 290 290 289 287 284 282 283 284 284 286 289 293 299 303
Height
11006 11006 11007 11008 11009 11009 11010 11011 11011 11012 11013 11013 11013 11013 11013 11014 11014 11015 11015 11015 11015 11016 11016 11016 11015 11015 11014 11014 11014 11014 11013 11013 11012 11011 11010 11009 11008 11006 11005 11004 11003 11001
11004 11005 11006 11007 11008 11009 11009 11010 11011 11012 11012 11012 11012 11012 11013 11013 11013 11014 11014 11014 11014 11015 11015 11015 11015 11014 11014 11013 11013 11013 11012 11012 11011 11010 11009 11008 11007 11006 11004 11003 11002 11000
11003 11004 11006 11007 11007 11008 11008 11009 11010 11010 11010 11011 11011 11012 11012 11012 11012 11012 11013 11013 11013 11013 11014 11014 11014 11014 11013 11013 11012 11012 11011 11010 11010 11009 11008 11007 11006 11004 11003 11002 11000 10999
11001 11003 11004 11006 11006 11007 11007 11008 11009 11009 11009 11010 11010 11011 11011 11010 11011 11011 11012 11012 11012 11012 11012 11013 11013 11013 11013 11012 11011 11010 11010 11009 11008 11007 11007 11006 11004 11003 11002 11001 10999 10998
10999 11001 11002 11004 11005 11005 11006 11006 11007 11008 11008 11009 11009 11009 11009 11009 11009 11010 11010 11011 11011 11011 11010 11010 11010 11011 11011 11011 11010 11009 11008 11007 11006 11005 11005 11004 11003 11002 11000 10999 10998 10997
10997 10999 11000 11002 11002 11003 11004 11005 11005 11006 11007 11008 11008 11008 11008 11008 11008 11008 11008 11009 11009 11009 11008 11008 11008 11008 11008 11008 11008 11008 11007 11006 11005 11004 11003 11002 11001 11000 10999 10998 10997 10995
10995 10997 10998 11000 11000 11002 11003 11003 11004 11004 11005 11005 11006 11006 11006 11006 11006 11006 11007 11007 11007 11007 11007 11006 11006 11005 11005 11006 11006 11006 11005 11005 11004 11002 11001 11000 10999 10998 10997 10996 10995 10994
10993 10995 10996 10997 10998 11000 11001 11001 11002 11002 11003 11003 11003 11004 11004 11004 11004 11005 11005 11005 11004 11004 11005 11004 11004 11003 11003 11003 11003 11003 11003 11003 11002 11001 10999 10998 10997 10996 10995 10994 10993 10992
10990 10992 10993 10994 10996 10998 10999 10999 10999 11000 11000 11001 11001 11001 11001 11001 11002 11002 11002 11002 11002 11002 11002 11002 11002 11001 11000 11000 11000 11000 11000 11000 11000 10999 10998 10997 10995 10994 10993 10992 10991 10989
10987 10989 10990 10992 10994 10996 10996 10997 10997 10997 10998 10998 10998 10998 10998 10999 10999 10999 10999 11000 11000 11000 10999 10999 10999 10999 10998 10997 10997 10997 10997 10997 10997 10996 10996 10995 10993 10992 10991 10990 10989 10987
10983 10985 10987 10989 10992 10993 10994 10994 10994 10995 10995 10996 10996 10996 10996 10996 10997 10997 10997 10997 10997 10997 10997 10997 10996 10996 10995 10995 10994 10994 10994 10994 10994 10993 10993 10992 10991 10990 10989 10987 10986 10985
10979 10982 10984 10987 10989 10991 10991 10991 10991 10992 10993 10993 10993 10993 10993 10994 10994 10994 10994 10994 10994 10994 10994 10994 10994 10993 10993 10992 10992 10991 10991 10991 10991 10991 10990 10989 10988 10987 10986 10985 10983 10982
10975 10978 10981 10984 10986 10987 10988 10987 10988 10989 10990 10990 10990 10990 10991 10991 10991 10991 10992 10991 10991 10991 10991 10991 10991 10991 10990 10990 10990 10989 10989 10988 10988 10987 10987 10986 10985 10984 10983 10982 10981 10979
10971 10975 10978 10980 10982 10983 10983 10984 10985 10986 10987 10987 10987 10988 10989 10989 10989 10989 10989 10988 10988 10988 10988 10988 10988 10988 10988 10988 10987 10987 10986 10985 10984 10984 10984 10983 10983 10981 10980 10978 10977 10976
10967 10970 10973 10976 10977 10978 10979 10980 10981 10982 10983 10984 10984 10985 10986 10986 10986 10986 10986 10986 10985 10985 10985 10986 10985 10985 10985 10985 10985 10984 10983 10982 10981 10980 10980 10980 10979 10978 10976 10974 10973 10971
10962 10965 10968 10971 10972 10974 10975 10977 10978 10979 10980 10981 10982 10983 10983 10984 10984 10984 10984 10983 10983 10983 10983 10983 10983 10983 10983 10982 10982 10981 10980 10980 10978 10977 10976 10976 10975 10974 10973 10971 10969 10967
10957 10960 10964 10966 10969 10971 10972 10973 10974 10975 10976 10978 10979 10979 10980 10981 10981 10982 10982 10981 10981 10980 10980 10980 10980 10979 10979 10979 10978 10978 10977 10977 10976 10974 10973 10972 10971 10969 10968 10966 10965 10963
10953 10956 10959 10962 10965 10967 10969 10970 10971 10972 10973 10974 10976 10977 10977 10978 10978 10979 10979 10979 10978 10977 10977 10977 10977 10977 10976 10976 10975 10974 10973 10973 10972 10971 10970 10968 10967 10965 10964 10962 10960 10959
10950 10953 10955 10958 10961 10964 10966 10967 10968 10968 10969 10971 10973 10974 10974 10974 10975 10976 10976 10976 10975 10974 10974 10974 10974 10974 10973 10972 10972 10970 10970 10969 10968 10968 10966 10965 10963 10962 10960 10958 10956 10955
10947 10949 10952 10955 10958 10961 10962 10963 10964 10965 10966 10968 10969 10970 10970 10970 10971 10971 10971 10972 10971 10971 10971 10971 10971 10971 10970 10969 10969 10967 10966 10965 10964 10963 10962 10961 10960 10958 10956 10954 10953 10951
10944 10946 10949 10951 10954 10957 10958 10959 10960 10961 10962 10964 10965 10966 10966 10967 10967 10966 10966 10967 10968 10967 10967 10968 10968 10967 10967 10966 10966 10964 10962 10961 10960 10959 10958 10957 10956 10954 10952 10951 10950 10948
10941 10943 10945 10948 10950 10952 10954 10955 10956 10958 10959 10960 10961 10961 10962 10963 10963 10962 10962 10963 10963 10963 10963 10964 10964 10964 10963 10963 10963 10961 10959 10957 10955 10954 10953 10952 10952 10950 10948 10947 10947 10946
10937 10940 10942 10944 10946 10948 10950 10951 10953 10954 10955 10956 10957 10957 10957 10958 10958 10959 10959 10958 10958 10958 10959 10960 10960 10960 10960 10960 10959 10958 10956 10954 10951 10949 10947 10947 10946 10945 10944 10944 10943 10943
10934 10936 10938 10940 10942 10944 10946 10947 10949 10950 10951 10952 10952 10952 10953 10954 10954 10955 10955 10954 10954 10954 10955 10956 10956 10956 10956 10955 10955 10954 10953 10951 10948 10946 10944 10943 10942 10940 10939 10939 10939 10938
10930 10932 10934 10936 10938 10939 10941 10943 10944 10946 10947 10947 10947 10948 10948 10949 10950 10950 10950 10950 10950 10950 10950 10951 10951 10951 10951 10951 10951 10950 10949 10947 10946 10944 10944 10943 10941 10939 10938 10936 10936 10935
10925 10927 10929 10931 10933 10935 10936 10938 10939 10941 10942 10942 10942 10943 10944 10944 10945 10945 10945 10945 10945 10946 10946 10946 10947 10947 10947 10947 10946 10945 10944 10943 10942 10942 10941 10941 10939 10937 10936 10935 10934 10932